ONEWEB-0315 (49101 NORAD) Tracking and Keplerian Element Data

This shows tracking and keplerian element data for the satellite.

Feedback or suggestion? Click here.




ElementValue
Catalog49101
NameONEWEB-0315
Epoch Orbit362
Epoch Day261.91667824
Epoch Year2021
RAAN356.504
Inclination87.4505
Eccentricity0.0017609
Argument of Perigee195.4632
Mean Anonmoly264.7958
Mean Motion15.19486996
Decay Rate-0.00969897
L11 49101U 21075AC 21261.91667824 -.00969897 00000-0 -49333-1 0 9998
L22 49101 87.4505 356.5040 0017609 195.4632 264.7958 15.19486996 3622

Live tracking and technical data element details for ONEWEB-0315 (NORAD 49101). ONEWEB-0315 can be tracked NOW for your location showing map with azimuth and elevation plus other details from your city location.

Track the satellite on the map from your city or location and see movement details for azimuth, elevation, latitude, longitude, range, height, and movement on the map or in text.







IsCatalogInMostPopularTable: catalog: 49101, numindb: 5
Update: records affected: 1



GetName: 49101 ONEWEB-0315

Hit Count: updated at: Fri, 24 Sep 2021 17:38:15 GMT